Regional Weather Roundup
Issued by NWS

Home | Current Version | Previous Version | Graphics & Text | Print | Product List | Glossary On
Versions: 1 2 3 4 5 6 7 8 9 10 11 12 13 14 15 16 17 18 19 20 21 22 23 24 25 26 27 28 29 30 31 32 33 34 35 36 37 38 39 40 41 42 43 44 45 46 47 48 49 50
000
ASUS43 KIND 171759
RWRIN

WEATHER ROUNDUP FOR INDIANA
NATIONAL WEATHER SERVICE INDIANAPOLIS IN
100 PM EST FRI NOV 17 2017

NOTE: "FAIR" INDICATES FEW OR NO CLOUDS BELOW 12,000 FEET WITH NO
SIGNIFICANT WEATHER AND/OR OBSTRUCTIONS TO VISIBILITY.

* - STATION DOES NOT REPORT WEATHER SUCH AS PRECIPITATION OR FOG.

+ - STATION NOT QUALITY CONTROLLED BY THE NATIONAL WEATHER SERVICE.
    USE DATA WITH CAUTION...ESPECIALLY DEWPOINT AND RELATIVE
    HUMIDITY OBSERVATIONS.

INZ001>003-010>013-019-020-171900-
NORTHWEST INDIANA

CITY           SKY/WX    TMP DP  RH WIND       PRES   REMARKS
GARY /AIRPORT/ CLOUDY    43  32  65 SE10      29.97F
KNOX *+        CLOUDY    43  32  65 S18       30.00F
LA PORTE +     CLOUDY    42  32  68 SE14      29.99F
6HR MIN TEMP:  34; 6HR MAX TEMP:  42;

MICHIGAN CITY+ PTSUNNY   43  32  65 SE12      29.98F
MONTICELLO +   CLOUDY    42  32  67 SE7       30.01F
6HR MIN TEMP:  34; 6HR MAX TEMP:  42;

RENSSELAER +   CLOUDY    43  32  65 SE13      29.99F

$$

LMZ046-743>745-171900-
SOUTHERN LAKE MICHIGAN

STATION/POSITION TIME  TEMP    WIND        PRES    WAVE
                       AIR SEA DIR/SP/G            HT
                 (UTC) (F)     (DEG/KT/KT) (MB)    (FT)
BURNS HARBOR     1740   43     170/ 11/ 20 1015.2F
MICHIGAN CITY    1730   42     140/ 12/ 14   N/A

$$

INZ004-005-014>016-021>024-171900-
NORTH CENTRAL INDIANA

CITY           SKY/WX    TMP DP  RH WIND       PRES   REMARKS
ELKHART        MOSUNNY   39  32  75 S12       30.08  WCI  32
GOSHEN         CLOUDY    44  32  62 SE17      30.03F
6HR MIN TEMP:  35; 6HR MAX TEMP:  44;

PERU/GRISSOM   PTSUNNY   44  34  70 S15       30.03F
6HR MIN TEMP:  35; 6HR MAX TEMP:  44;

SOUTH BEND     CLOUDY    42  34  73 SE18      30.01F
6HR MIN TEMP:  34; 6HR MAX TEMP:  42;

WARSAW +       CLOUDY    43  32  65 SE12G17   30.04F

$$

INZ006>009-017-018-025>027-171900-
NORTHEAST INDIANA

CITY           SKY/WX    TMP DP  RH WIND       PRES   REMARKS
AUBURN +       MOSUNNY   43  32  65 SE9       30.08F
FORT WAYNE     PTSUNNY   45  35  68 SE13      30.08F
6HR MIN TEMP:  37; 6HR MAX TEMP:  45;

KENDALLVILLE + PTSUNNY   41  33  72 SE15      30.07F

$$

INZ028-029-035-036-043>045-051>053-171900-
WEST CENTRAL INDIANA

CITY           SKY/WX    TMP DP  RH WIND       PRES   REMARKS
CRAWFORDSVL +  CLOUDY    41  33  74 SE13      30.02F
6HR MIN TEMP:  29; 6HR MAX TEMP:  41;

GREENCASTLE +  CLOUDY    41  32  70 SE12      30.04F
LAFAYETTE      CLOUDY    43  33  68 S9G20     30.01F
6HR MIN TEMP:  30; 6HR MAX TEMP:  43;

TERRE HAUTE    CLOUDY    42  33  70 S15       30.05F
6HR MIN TEMP:  27; 6HR MAX TEMP:  42;


$$

INZ030>032-037>040-046>048-054>057-064-065-171900-
CENTRAL INDIANA

CITY           SKY/WX    TMP DP  RH WIND       PRES   REMARKS
ANDERSON       SUNNY     45  32  61 SE12      30.18
COLUMBUS       SUNNY     43  30  61 S9        30.11F
INDIANAPOLIS   CLOUDY    43  32  65 SE14      30.06F
6HR MIN TEMP:  33; 6HR MAX TEMP:  43;

-EAGLE CREEK   CLOUDY    43  30  60 S9        30.05F
6HR MIN TEMP:  34; 6HR MAX TEMP:  43;

KOKOMO +       CLOUDY    43  33  68 S16       30.05F
6HR MIN TEMP:  35; 6HR MAX TEMP:  44;

MT COMFORT *+  CLOUDY    45  36  70 S14       30.07F
SHELBYVILLE    CLOUDY    46  32  58 S14       30.08F
6HR MIN TEMP:  35; 6HR MAX TEMP:  46;


$$

INZ033-034-041-042-049-050-058-059-171900-
EAST CENTRAL INDIANA

CITY           SKY/WX    TMP DP  RH WIND       PRES   REMARKS
MUNCIE         SUNNY     47  33  58 S9        30.06F
6HR MIN TEMP:  37; 6HR MAX TEMP:  47;

RICHMOND +     SUNNY     41  32  70 SE9       30.11F

$$

INZ060-061-067>069-081>083-085>088-171900-
SOUTHWEST INDIANA

CITY           SKY/WX    TMP DP  RH WIND       PRES   REMARKS
EVANSVILLE     CLOUDY    40  38  93 SE9       30.09F FOG     WCI  34
6HR MIN TEMP:  33; 6HR MAX TEMP:  40;

HUNTINGBURG +  MOSUNNY   46  38  73 SE12      30.09F
6HR MIN TEMP:  32; 6HR MAX TEMP:  46;


$$

INZ062-063-066-070>080-084-089>092-171900-
SOUTH CENTRAL AND SOUTHEAST INDIANA

CITY           SKY/WX    TMP DP  RH WIND       PRES   REMARKS
BLOOMINGTON    CLOUDY    43  32  65 S10       30.06F
6HR MIN TEMP:  32; 6HR MAX TEMP:  43;

MADISON *+     SUNNY     46  32  57 SE3       30.13F
SEYMOUR +      MOSUNNY   46  32  57 S10       30.11F

$$





USA.gov is the U.S. government's official web portal to all federal, state and local government web resources and services.